Temp
87 90 90 91 91 91 90 88 85 79 72 69 67 68 67 67 68 67 68 68 68 67 67 66 65 65 62 63 64 63 62 63 76 70 67 67 70 75 77 78 77 77 76
85 87 89 89 88 88 87 85 85 83 73 70 73 77 73 73 71 69 67 67 66 66 65 66 64 63 62 62 62 62 61 62 70 69 68 61 61 68 75 77 76 76 77
81 84 86 87 87 86 85 85 85 84 74 75 78 77 73 69 66 67 67 67 67 66 65 65 63 62 62 62 62 63 62 63 67 70 69 62 59 63 70 73 76 75 75
80 82 84 85 86 87 85 85 85 83 73 78 80 75 68 65 68 68 68 64 65 65 65 63 63 62 62 61 62 64 63 67 66 69 75 74 74 64 59 67 73 75 74
78 80 83 85 87 88 85 83 84 83 77 79 81 76 74 76 74 70 68 66 63 64 63 63 62 61 61 62 62 63 66 68 68 70 70 72 74 72 68 63 67 73 75
78 81 83 85 86 89 84 81 81 81 79 79 79 77 75 76 74 70 67 64 62 62 61 62 62 62 62 62 62 64 66 68 70 73 72 71 68 71 71 70 69 69 72
76 78 80 83 85 85 80 78 78 79 79 77 77 77 75 75 72 71 67 62 60 60 61 61 61 61 62 62 63 63 67 69 70 71 69 73 73 75 75 74 69 68 72
74 77 79 80 82 81 74 72 78 79 78 76 76 76 76 72 74 69 65 62 58 59 61 61 61 61 62 62 63 65 68 68 68 67 68 68 72 72 74 74 72 65 69
69 74 77 79 79 75 66 65 76 78 76 75 75 74 72 71 70 67 63 60 59 58 58 59 60 61 61 62 62 64 64 66 66 66 68 67 69 72 75 74 74 69 63
64 63 73 78 79 71 64 63 72 74 74 73 73 71 69 71 70 65 60 59 58 58 58 58 58 59 60 61 61 63 64 66 66 66 65 65 70 70 70 72 70 68 66
57 55 63 75 77 72 65 63 68 72 71 72 69 68 68 68 67 67 61 59 58 58 58 58 58 58 58 59 60 63 62 63 62 60 60 61 64 67 69 64 63 67 64
54 52 52 62 67 65 64 62 67 68 68 70 67 67 68 67 66 65 61 60 58 58 58 57 57 56 56 57 58 58 58 57 57 58 61 62 65 65 63 65 63 64 64
52 48 49 49 58 60 60 61 63 64 67 66 65 67 67 65 64 64 63 60 59 58 58 58 57 57 56 56 57 56 56 57 58 61 64 66 65 65 65 63 60 59 59
47 44 44 46 48 54 59 60 61 64 66 66 65 66 68 67 67 68 66 62 63 60 60 60 60 59 58 58 57 56 56 57 59 62 65 68 65 65 65 61 59 58 57
44 41 41 42 44 45 48 59 61 62 64 63 65 65 68 68 68 67 67 68 66 64 63 63 62 61 60 59 57 58 57 57 59 62 66 66 62 54 58 62 62 61 59
42 39 39 39 40 41 43 47 52 59 68 64 62 65 68 65 65 66 65 64 65 66 65 65 65 63 49 38 40 51 59 59 61 59 62 67 54 54 47 47 47 50 56
39 37 36 37 37 38 40 41 46 50 50 49 50 52 54 54 54 59 58 57 59 60 56 55 49 44 42 37 39 39 56 58 54 52 51 56 49 44 50 46 39 37 36
33 34 34 35 36 37 37 40 42 43 43 43 44 46 48 47 47 48 46 44 43 43 43 42 43 41 39 37 38 38 52 43 40 39 41 41 41 38 40 45 38 34 34
32 32 33 33 33 35 35 37 37 38 38 38 39 40 42 41 41 39 39 39 38 36 36 36 37 37 36 37 38 44 43 38 35 35 35 36 35 35 38 40 34 32 31
31 31 32 32 32 33 35 33 34 35 34 35 37 38 38 37 36 36 35 35 35 34 34 33 33 34 34 36 37 38 36 32 31 32 32 33 33 34 37 36 33 30 29
30 30 30 29 30 32 34 31 31 31 32 35 35 37 37 36 36 35 35 34 33 33 32 31 31 31 32 34 36 35 34 32 31 30 30 31 33 33 33 33 31 30 31
30 30 29 29 30 32 32 31 30 32 32 33 34 34 35 37 38 38 34 34 34 33 32 32 31 31 31 33 34 34 34 34 32 30 31 32 33 33 33 33 33 33 33
31 31 29 28 29 30 32 30 31 32 32 31 31 32 33 32 32 34 35 34 37 35 34 33 32 32 34 33 32 32 32 32 32 32 32 33 33 33 32 32 32 33 33
29 30 29 27 27 29 29 31 32 33 32 31 30 29 29 29 31 32 32 30 32 32 32 33 32 32 31 32 33 33 33 32 33 33 33 32 32 32 32 33 33 33 33
28 29 28 27 27 29 29 30 32 33 32 31 31 31 31 29 27 27 29 29 29 30 30 29 29 29 27 28 31 32 32 32 32 33 33 33 33 32 32 32 32 32 33
30 29 29 28 29 29 29 30 31 31 30 29 30 31 32 31 28 26 24 28 28 29 29 29 30 29 29 30 31 31 32 33 33 32 30 29 30 30 30 30 30 30 29
MSLP
996.05 996.12 996.45 996.73 997.12 997.50 998.22 999.36 1000.30 1001.70 1003.43 1004.34 1005.12 1005.61 1006.03 1006.84 1007.42 1007.93 1008.35 1008.70 1009.34 1009.96 1010.51 1011.03 1011.84 1011.72 1012.78 1013.48 1014.20 1015.03 1015.57 1015.57 1014.68 1015.33 1016.44 1017.05 1017.43 1017.50 1017.83 1018.12 1018.50 1019.04 1019.93
995.09 995.29 995.60 996.06 996.71 997.21 998.30 999.25 999.90 1000.89 1002.64 1003.81 1004.43 1004.67 1005.48 1006.00 1006.76 1007.49 1008.12 1008.33 1008.89 1009.37 1010.01 1010.53 1011.06 1011.71 1012.51 1013.30 1013.84 1014.47 1015.22 1015.51 1014.58 1015.14 1016.24 1017.39 1018.50 1018.29 1017.87 1018.10 1018.45 1018.78 1019.21
995.01 995.06 994.97 995.25 996.10 996.68 997.93 998.81 999.32 1000.15 1002.04 1003.07 1003.66 1004.09 1004.87 1005.94 1006.57 1007.02 1007.40 1007.80 1008.26 1008.78 1009.36 1009.94 1010.61 1011.29 1011.97 1012.11 1013.45 1013.90 1014.49 1014.92 1014.86 1015.12 1015.20 1016.25 1016.95 1017.94 1018.13 1018.01 1018.10 1018.53 1019.00
995.16 994.97 994.61 994.87 995.27 995.91 997.36 998.23 998.78 999.68 1001.81 1002.01 1002.06 1002.91 1004.25 1005.12 1005.57 1006.17 1006.82 1007.42 1007.92 1008.40 1008.72 1009.31 1009.97 1010.70 1011.40 1011.83 1012.79 1013.39 1013.90 1014.07 1014.31 1014.89 1014.87 1015.23 1015.17 1016.45 1017.61 1018.22 1017.99 1018.40 1018.88
995.19 994.81 994.28 994.39 994.73 995.16 996.47 997.85 998.45 999.09 1000.82 1001.00 1001.26 1002.38 1003.42 1003.64 1004.55 1005.54 1006.14 1006.77 1007.36 1007.94 1008.20 1008.82 1009.50 1010.21 1011.20 1011.56 1011.99 1012.86 1013.26 1013.40 1013.74 1014.02 1014.52 1014.73 1014.86 1015.24 1015.54 1016.77 1017.59 1017.87 1018.14
995.23 994.61 994.19 994.07 994.22 994.38 995.94 997.62 998.26 998.82 999.99 1000.57 1001.32 1001.96 1002.60 1003.03 1003.69 1004.65 1005.36 1006.14 1006.77 1007.52 1007.93 1008.23 1008.91 1009.61 1010.47 1011.09 1011.52 1012.12 1012.76 1012.96 1013.37 1013.57 1014.04 1014.39 1014.56 1014.55 1014.89 1014.88 1015.83 1016.66 1017.21
995.38 994.89 994.33 993.70 993.83 994.34 996.16 997.63 998.36 998.65 999.67 1000.57 1001.24 1001.78 1002.42 1002.99 1003.63 1004.20 1005.02 1005.96 1006.63 1006.97 1007.39 1007.81 1008.28 1009.18 1009.84 1010.54 1011.27 1011.83 1012.32 1012.55 1013.15 1013.38 1013.74 1014.08 1014.40 1014.58 1014.73 1014.77 1015.10 1015.60 1016.17
996.17 995.22 994.71 994.69 994.50 995.28 997.27 998.47 998.11 998.67 999.61 1000.53 1001.10 1001.79 1002.29 1003.07 1003.39 1004.08 1005.11 1005.75 1006.32 1006.69 1006.98 1007.32 1007.90 1008.80 1009.42 1010.05 1010.92 1011.63 1012.01 1012.57 1013.10 1013.48 1013.89 1014.30 1014.52 1014.90 1014.76 1014.76 1015.02 1015.60 1015.86
997.64 996.34 995.79 995.00 995.39 996.55 998.55 999.29 998.37 998.68 999.79 1000.62 1001.18 1001.91 1002.52 1003.03 1003.45 1004.25 1005.20 1005.77 1006.26 1006.64 1006.87 1006.96 1007.54 1008.26 1008.97 1009.69 1010.69 1011.21 1011.86 1012.49 1012.97 1013.41 1013.88 1014.22 1014.67 1014.98 1014.88 1015.02 1015.10 1015.46 1015.91
999.24 998.98 996.93 995.68 995.97 997.74 999.22 999.93 999.30 999.24 1000.19 1000.97 1001.45 1002.12 1002.71 1003.02 1003.62 1004.58 1005.27 1005.73 1006.16 1006.69 1007.04 1007.32 1007.83 1008.16 1008.53 1009.04 1010.40 1011.17 1011.78 1012.34 1013.01 1013.50 1013.94 1014.22 1014.57 1014.99 1015.18 1015.34 1015.65 1015.79 1016.34
1000.92 1000.90 999.55 997.59 997.09 998.22 999.76 1000.37 1000.09 999.76 1000.40 1001.09 1001.93 1002.48 1002.90 1003.14 1003.84 1004.41 1005.17 1005.66 1006.18 1006.57 1007.10 1007.63 1008.12 1008.44 1008.73 1009.45 1010.14 1010.70 1011.64 1012.39 1013.23 1013.62 1013.86 1014.33 1014.58 1014.77 1014.96 1015.34 1015.67 1016.11 1016.83
1002.53 1002.49 1001.88 1000.38 999.25 999.82 1000.48 1000.91 1000.46 1000.23 1001.09 1001.37 1002.16 1002.67 1003.00 1003.30 1003.97 1004.56 1005.23 1005.62 1006.22 1006.84 1007.33 1007.93 1008.30 1008.95 1009.48 1009.95 1010.54 1011.23 1011.79 1012.39 1012.98 1013.48 1013.72 1014.08 1014.45 1014.72 1014.92 1015.16 1015.70 1016.31 1016.55
1003.72 1003.98 1003.78 1003.03 1001.66 1001.35 1001.52 1001.53 1001.40 1001.16 1001.53 1002.04 1002.48 1002.70 1003.05 1003.28 1004.06 1004.62 1005.19 1005.65 1006.15 1006.77 1007.48 1008.03 1008.59 1009.32 1009.90 1010.43 1010.97 1011.44 1011.92 1012.43 1012.81 1013.09 1013.26 1013.65 1013.99 1014.27 1014.71 1015.10 1015.40 1015.81 1016.24
1005.46 1005.71 1005.66 1005.14 1004.17 1002.98 1002.39 1002.26 1002.03 1001.86 1001.86 1002.35 1002.74 1002.76 1003.02 1003.15 1003.91 1004.20 1004.77 1005.51 1006.03 1006.56 1007.16 1007.74 1008.31 1008.90 1009.54 1010.22 1010.72 1011.21 1011.71 1012.08 1012.51 1012.67 1012.94 1012.78 1013.23 1013.65 1014.00 1014.64 1014.97 1015.24 1015.72
1006.96 1007.46 1007.43 1006.93 1006.20 1005.04 1004.08 1002.83 1002.50 1002.39 1002.46 1002.80 1002.91 1003.05 1003.22 1003.40 1003.84 1004.33 1004.71 1005.07 1005.55 1006.31 1006.93 1007.43 1008.07 1008.61 1009.29 1009.84 1010.34 1010.85 1011.32 1011.70 1011.97 1012.19 1012.26 1012.48 1012.88 1013.32 1013.73 1014.20 1014.35 1014.67 1015.21
1008.80 1009.12 1009.07 1008.67 1007.96 1007.01 1005.92 1004.80 1003.55 1002.72 1002.43 1002.99 1003.45 1003.58 1003.66 1004.09 1004.53 1004.84 1005.21 1005.68 1006.00 1006.23 1006.60 1007.00 1007.46 1008.30 1010.16 1010.80 1010.49 1010.43 1010.80 1011.22 1011.40 1011.77 1011.89 1012.01 1012.40 1012.83 1013.24 1013.64 1013.93 1014.39 1014.94
1010.76 1010.95 1010.78 1010.34 1009.71 1008.81 1007.69 1006.91 1005.55 1004.60 1004.59 1004.94 1005.22 1005.14 1005.16 1005.33 1005.79 1005.78 1006.09 1006.51 1006.76 1006.93 1007.62 1008.11 1009.16 1010.13 1010.92 1011.20 1010.96 1010.73 1010.78 1010.91 1011.53 1012.01 1012.27 1012.08 1012.96 1013.21 1013.65 1013.81 1014.67 1015.46 1015.81
1012.80 1012.59 1012.36 1011.81 1010.98 1010.25 1008.89 1008.21 1007.58 1006.46 1006.49 1006.57 1006.63 1006.52 1006.41 1006.61 1006.96 1007.28 1007.81 1008.33 1008.59 1009.20 1009.75 1010.36 1010.78 1011.13 1011.65 1011.39 1011.05 1010.88 1011.21 1012.20 1012.90 1013.41 1013.67 1013.85 1014.15 1014.55 1014.58 1014.61 1015.49 1016.30 1016.60
1014.47 1014.17 1013.85 1013.23 1011.76 1011.03 1010.40 1009.79 1009.10 1008.20 1008.13 1008.38 1008.31 1008.22 1008.18 1008.29 1008.59 1009.04 1009.54 1010.08 1010.31 1010.75 1011.46 1012.05 1012.33 1012.56 1012.77 1012.24 1011.50 1011.42 1012.29 1013.41 1014.32 1014.82 1014.93 1014.93 1015.05 1015.07 1014.99 1015.16 1016.03 1016.84 1017.56
1015.73 1015.38 1014.82 1014.00 1012.39 1012.44 1011.69 1010.81 1010.65 1010.00 1009.93 1010.35 1010.29 1009.77 1009.67 1009.68 1010.09 1010.62 1011.03 1011.68 1011.91 1012.34 1012.85 1013.29 1013.72 1014.01 1013.86 1013.49 1013.02 1012.85 1013.43 1014.18 1015.01 1015.62 1015.95 1016.01 1015.71 1015.23 1014.93 1015.72 1016.37 1017.34 1018.26
1016.78 1016.53 1015.94 1015.25 1014.41 1013.36 1013.43 1012.28 1010.88 1011.60 1012.12 1011.96 1012.07 1011.25 1011.11 1010.67 1011.43 1012.07 1012.17 1012.69 1013.34 1013.49 1013.83 1014.22 1014.86 1015.03 1015.03 1014.80 1014.45 1014.45 1014.53 1015.17 1015.77 1016.28 1016.83 1016.71 1016.64 1016.05 1016.37 1015.80 1017.35 1017.57 1018.51
1017.66 1017.24 1016.91 1015.81 1016.27 1015.26 1013.45 1013.59 1013.51 1014.05 1013.48 1012.92 1013.83 1012.77 1012.75 1011.64 1012.13 1013.20 1013.40 1013.25 1014.75 1014.37 1015.14 1015.15 1015.61 1016.23 1016.47 1016.15 1016.02 1016.11 1016.22 1016.46 1016.79 1017.49 1017.88 1018.19 1018.02 1017.53 1017.52 1018.05 1018.55 1018.39 1018.66
1018.51 1018.28 1018.08 1017.70 1016.89 1016.38 1015.77 1015.24 1016.01 1014.98 1014.66 1014.98 1015.16 1014.34 1014.22 1012.96 1014.09 1014.16 1014.32 1013.30 1015.84 1015.03 1015.70 1016.04 1016.55 1016.96 1017.20 1017.58 1017.84 1017.82 1017.81 1017.83 1018.09 1018.45 1018.76 1018.90 1018.94 1018.95 1018.97 1018.94 1018.87 1018.91 1019.09
1019.41 1019.25 1019.03 1018.65 1018.24 1018.23 1017.56 1016.93 1016.08 1017.30 1015.30 1015.76 1016.44 1015.88 1015.93 1015.42 1015.25 1015.19 1015.74 1015.50 1015.79 1016.03 1016.79 1017.44 1017.83 1018.41 1018.83 1018.76 1018.90 1018.76 1018.92 1019.16 1019.12 1019.32 1019.35 1019.39 1019.53 1019.59 1019.77 1019.89 1020.06 1020.24 1020.22
1020.65 1020.31 1020.11 1019.98 1020.07 1019.67 1018.88 1018.70 1018.34 1018.36 1017.14 1017.79 1017.26 1017.80 1017.70 1017.70 1017.18 1017.27 1017.39 1017.86 1018.64 1018.31 1018.61 1019.28 1019.46 1019.98 1020.14 1020.56 1020.41 1020.11 1019.94 1020.07 1020.02 1019.85 1019.83 1019.78 1019.86 1020.11 1020.46 1020.75 1020.91 1021.09 1021.05
1021.61 1021.39 1020.99 1020.67 1020.61 1020.24 1019.99 1019.81 1019.09 1018.66 1018.76 1018.40 1017.81 1019.12 1019.08 1019.20 1017.95 1018.85 1019.66 1020.13 1020.22 1020.60 1020.74 1021.09 1021.29 1021.51 1021.39 1021.13 1021.21 1021.34 1021.13 1020.89 1020.77 1020.59 1020.60 1020.80 1020.81 1020.99 1021.37 1021.60 1021.82 1022.03 1022.18
Wind_Speed
20 18 17 17 17 15 14 15 17 19 13 10 10 10 9 7 7 7 11 12 12 13 12 9 8 11 11 11 13 8 10 11 10 8 6 5 5 6 8 8 8 13 13
16 16 19 18 18 15 14 16 17 19 14 10 11 11 10 8 8 8 10 11 13 12 11 11 9 12 11 13 13 11 9 8 7 11 9 7 2 3 7 9 9 9 10
15 16 17 18 18 17 16 16 18 19 16 18 13 10 6 4 5 8 9 12 13 12 13 13 11 13 11 12 14 13 14 11 10 14 10 10 6 9 7 8 10 10 9
13 15 17 17 19 17 16 16 17 18 16 21 17 16 10 8 8 9 9 8 12 13 14 12 13 12 10 13 14 12 12 13 13 11 11 10 9 11 6 6 8 10 11
10 13 13 16 19 18 15 13 16 18 18 20 16 13 14 11 10 8 12 12 11 12 12 13 13 13 10 12 15 15 15 13 12 11 10 9 7 12 10 11 11 10 11
9 10 12 15 17 16 14 13 15 17 18 18 17 15 14 10 9 9 8 8 7 9 10 15 13 13 13 12 15 15 18 13 12 11 10 9 7 7 7 6 11 12 10
11 8 9 9 14 12 13 12 16 18 18 17 17 15 13 13 9 10 7 8 5 6 10 12 15 13 12 13 12 12 14 13 12 12 8 6 6 6 6 7 4 8 8
15 11 8 6 7 9 12 12 16 17 17 16 14 11 10 7 8 7 6 6 6 7 9 15 14 15 15 13 11 11 12 11 11 12 9 6 7 6 6 7 6 3 4
18 17 13 4 7 11 10 11 14 17 16 15 12 11 10 9 7 7 8 5 6 5 6 9 12 15 17 17 13 9 9 10 9 9 10 8 6 6 7 4 6 5 7
19 20 17 2 5 13 11 9 13 12 14 13 11 10 9 8 6 8 9 8 6 9 9 9 8 11 12 16 15 11 10 9 8 7 8 6 7 9 7 6 6 3 5
16 17 17 14 4 14 11 10 14 13 12 12 10 9 10 9 8 8 8 9 9 10 11 10 10 9 10 11 11 12 10 11 10 5 6 7 7 7 7 4 2 4 6
15 15 17 14 11 9 9 8 11 11 9 10 9 9 10 11 8 8 8 10 10 10 11 10 10 8 8 9 9 9 8 7 8 8 10 11 8 10 6 6 8 8 6
16 16 17 15 10 5 5 7 5 8 10 8 9 10 11 10 8 9 10 8 11 11 10 11 11 12 10 10 9 9 10 11 12 14 14 15 12 11 9 10 7 6 5
15 15 15 15 14 11 6 7 5 7 8 10 9 10 11 10 10 9 12 11 12 10 11 11 11 12 11 11 11 11 11 11 12 13 14 13 12 14 12 10 10 7 7
14 14 15 14 14 14 15 4 7 7 9 8 9 8 9 9 8 8 8 8 10 12 12 13 13 12 11 8 12 12 12 12 12 14 14 14 13 12 12 9 10 10 10
14 14 15 16 15 15 14 14 10 2 9 6 4 8 8 7 7 8 8 6 6 5 3 7 11 12 8 9 9 5 10 11 11 11 12 14 14 16 16 15 13 7 9
14 13 13 13 13 13 13 12 11 10 12 11 10 10 10 11 10 7 7 7 2 4 8 10 12 11 9 12 8 6 2 3 3 4 6 4 7 11 8 3 13 15 12
13 13 12 12 12 12 13 11 11 12 12 12 11 11 11 12 11 12 12 11 11 11 10 11 11 10 11 15 10 6 11 11 12 11 9 8 8 9 6 5 10 12 13
14 11 10 10 10 14 12 11 12 13 14 13 13 12 12 12 12 13 13 11 11 12 12 11 12 11 12 17 10 9 11 12 13 12 12 9 8 10 5 6 10 10 10
13 14 13 11 15 15 13 12 14 14 14 13 11 12 12 14 14 12 13 11 12 12 10 13 12 17 12 18 16 12 8 11 8 9 10 18 12 15 12 9 9 10 7
14 14 13 12 15 12 11 17 15 16 12 11 10 11 13 15 14 12 12 12 11 11 12 13 12 14 14 16 19 16 9 7 8 8 8 8 18 22 21 20 8 9 7
14 15 12 15 13 12 13 16 17 13 11 11 10 13 11 12 12 14 10 13 9 11 9 10 10 10 13 21 23 21 14 13 10 9 8 12 21 23 21 14 14 12 7
11 12 12 11 15 16 14 14 12 9 12 14 11 13 12 16 14 13 11 15 6 10 9 9 8 8 8 10 22 22 20 18 12 9 13 17 18 18 17 20 18 12 7
13 12 13 14 14 14 15 14 12 8 13 11 12 14 15 15 13 12 12 13 10 11 10 9 9 9 9 9 7 6 7 9 9 9 9 10 11 14 11 9 9 7 7
11 11 12 13 13 13 15 14 12 8 12 10 10 12 11 13 15 17 14 13 15 15 9 10 10 8 9 10 14 10 6 5 5 6 6 7 7 8 7 8 8 8 8
12 12 14 15 15 15 15 15 14 13 10 10 10 9 8 7 10 11 12 26 26 26 25 23 12 10 16 17 16 14 14 12 8 7 7 7 7 8 8 8 8 8 9
Wind_Direction
247 238 240 233 231 218 210 202 197 176 180 184 185 186 187 183 194 189 199 190 192 196 203 208 194 164 164 172 175 173 192 212 186 133 125 71 49 168 174 180 189 171 161
253 245 236 227 227 213 223 212 203 189 178 184 195 200 191 199 196 187 193 194 193 193 196 201 188 178 177 169 176 176 183 204 183 152 153 144 75 224 209 188 190 183 187
266 261 251 229 224 203 220 214 204 189 179 192 200 195 152 157 188 197 206 198 199 194 198 199 182 177 173 172 179 176 181 187 191 161 165 154 183 171 206 220 194 178 210
284 278 250 245 223 221 205 209 204 177 185 202 196 179 178 194 199 200 205 191 194 197 197 182 177 175 174 177 179 185 187 186 177 174 178 202 180 173 166 212 220 197 204
290 293 265 236 237 217 195 204 205 183 186 205 203 176 204 200 183 207 194 193 190 198 184 176 176 176 180 183 178 186 196 190 180 177 199 190 229 181 167 178 203 205 205
304 291 279 240 218 213 174 192 201 195 186 198 204 195 204 214 202 195 195 192 182 191 188 180 173 169 173 177 182 181 196 185 190 181 188 188 213 183 229 194 179 190 199
342 317 293 234 221 181 167 183 201 192 185 192 196 193 204 207 200 206 198 184 174 191 188 182 173 172 171 171 176 189 192 185 187 189 183 192 208 222 225 230 195 182 193
352 347 326 242 226 172 149 199 197 188 179 187 188 193 189 192 209 171 184 195 185 191 193 187 181 181 172 171 176 189 190 187 189 187 178 196 202 226 246 223 234 169 241
358 354 332 241 198 138 157 201 204 183 175 187 179 179 179 199 170 160 176 167 159 152 156 161 175 174 175 170 177 175 175 180 184 192 191 189 199 226 245 241 250 241 236
5 348 340 14 172 136 154 190 226 169 176 185 177 166 183 168 144 153 164 161 148 150 144 135 141 159 151 155 165 169 172 179 185 187 201 210 213 215 232 231 259 286 252
9 352 338 335 179 130 154 182 219 171 165 180 180 166 170 155 155 151 153 155 144 148 147 143 143 142 139 145 151 160 156 172 178 177 187 220 227 219 212 198 227 251 244
14 1 352 339 32 112 150 183 221 155 161 180 170 168 166 145 156 150 145 154 150 153 151 147 138 139 143 145 144 149 155 166 189 206 213 216 215 226 216 191 201 222 220
15 7 358 2 349 123 170 185 221 145 164 175 179 177 173 145 151 157 157 152 152 159 162 161 161 165 169 171 174 176 178 195 206 216 215 222 221 224 218 218 213 201 205
16 10 359 355 358 345 175 170 185 174 158 173 183 183 175 151 164 166 158 164 164 156 160 171 172 171 174 181 180 181 189 201 208 218 222 232 214 226 215 213 214 216 231
19 11 1 352 354 2 357 180 175 188 166 181 195 176 174 156 162 154 160 155 160 165 175 179 180 174 182 187 186 193 197 204 213 224 231 225 221 222 221 215 224 229 235
13 9 1 357 353 358 360 353 19 87 175 200 162 184 152 152 160 157 157 156 162 169 152 176 180 180 74 24 39 198 197 207 220 218 233 233 210 219 216 225 249 323 269
8 7 5 360 352 355 3 358 12 52 65 66 52 53 66 64 51 68 76 64 138 92 52 44 74 72 50 16 35 44 212 209 52 33 29 22 46 36 16 355 84 69 53
9 9 4 357 2 1 16 13 22 49 57 58 53 47 57 62 58 63 68 67 60 64 69 61 57 58 31 11 15 21 88 77 62 50 42 44 35 24 7 71 78 66 55
13 6 358 1 16 12 14 31 30 49 52 46 51 48 54 63 66 63 59 60 69 65 64 60 55 50 32 15 15 93 92 85 74 61 49 51 42 8 356 119 109 92 77
22 9 358 10 30 17 20 43 32 45 46 40 46 59 61 66 64 65 64 62 66 71 68 63 51 46 40 32 50 76 89 90 84 68 54 47 53 53 55 102 109 97 97
28 20 12 16 25 18 22 43 40 35 28 38 34 60 66 75 70 68 69 67 65 71 69 68 56 48 41 41 55 64 76 83 84 71 59 57 59 67 72 80 80 99 109
32 26 28 23 16 14 34 40 43 17 23 49 32 49 52 67 71 71 74 77 54 68 64 74 70 60 50 50 51 57 73 88 89 87 79 74 70 70 72 80 89 96 100
37 35 32 27 24 19 23 48 37 26 46 44 40 44 50 60 54 51 49 74 60 69 58 57 62 60 54 66 62 60 62 67 77 77 85 80 76 71 62 56 55 54 59
32 32 36 35 33 25 25 28 42 16 60 50 48 50 50 55 58 68 50 46 44 53 50 53 55 49 39 30 38 52 77 85 87 91 86 93 86 72 67 59 58 58 53
36 34 41 46 43 36 39 24 26 34 57 57 60 58 60 62 65 54 53 58 48 47 56 53 45 55 53 40 44 45 58 55 52 73 65 62 61 60 60 62 55 43 44
46 46 44 43 41 41 36 38 35 38 48 50 54 47 62 85 81 76 68 59 63 59 57 55 66 66 68 67 64 61 57 55 56 68 69 63 57 59 54 50 53 44 40